[[{"header":{"parameterUnit":"m.s-1","parameterCategory":1,"la1":30.2991,"la2":30.254,"lo1":-89.0895,"lo2":-89.0444,"dy":0.0017,"dx":0.0017,"nx":28,"ny":28,"refTime":"2024-08-07T03:00:00:Z","depth":0,"parameterNumber":2,"parameterNumberName":"U-component_of_WINDS"},"data":[0,0,0,0,0,0,0,0,0,0,0,0,0,0,0,0,0,0,0,0,0,0,0,0,0,0,0,0,0,0,0,0,0,0,0,0,0,0,0,0,0,0,0,0,0,0,0,0,0,0,0,0,0,0,0,0,0,0,3.2149,3.2149,0,3.2152,3.2152,3.2152,3.2073,3.2071,3.2069,3.2067,3.2072,3.2074,3.2076,0,0,0,0,0,0,0,0,0,0,0,0,0,3.208,3.2081,3.2149,3.2149,3.215,3.2152,3.2152,3.2152,3.2074,3.2071,3.2068,3.2066,3.2071,3.2074,3.2076,0,0,0,0,0,0,0,0,0,0,0,0,0,3.2099,3.2082,3.2149,3.2111,3.2107,3.2152,3.2152,3.2152,3.2074,3.2071,3.2068,3.2065,3.207,3.2073,3.2076,3.2159,0,0,3.2086,3.2087,0,0,0,0,0,0,0,0,3.2098,3.2102,3.2116,3.2113,3.211,3.2109,3.2129,3.2155,3.2075,3.2087,3.2067,3.2063,3.2087,3.2088,3.2096,3.2159,3.216,3.2086,3.2088,3.209,3.209,0,0,0,0,0,0,0,3.2097,3.2101,3.215,3.2117,3.2113,3.2094,3.2093,3.2134,3.2105,3.2085,3.208,3.2081,3.2084,3.2093,3.2095,3.216,3.2086,3.2089,3.2091,3.2092,3.2294,3.2298,0,0,0,0,0,0,3.21,3.21,3.215,3.2151,3.2096,3.2098,3.2097,3.2112,3.2104,3.21,3.2084,3.2077,3.2089,3.2092,3.2095,3.2194,3.2089,3.2092,3.2094,3.2291,3.2295,3.2299,0,0,0,0,0,0,3.2099,3.2105,3.215,3.2124,3.2128,3.2102,3.212,3.2114,3.2123,3.2103,3.2097,3.2098,3.2087,3.2091,3.2144,3.2193,3.2094,3.2097,3.2287,3.2292,3.2297,3.2391,0,0,0,0,0,0,3.2097,3.2106,3.2136,3.2125,3.213,3.2199,3.2123,3.2117,3.2128,3.212,3.2114,3.211,3.2085,3.214,3.2148,3.2196,3.2099,3.2282,3.2289,3.2295,3.2384,3.2399,3.2412,0,0,0,0,0,3.2095,3.2162,3.2138,3.2144,3.2167,3.2202,3.2205,3.2173,3.2132,3.2164,3.2151,3.2111,3.2186,3.2146,3.2154,3.2204,3.2279,3.2287,3.2295,3.2377,3.2396,3.2412,0,0,0,0,0,0,3.218,3.216,3.2133,3.2198,3.2202,3.2188,3.2227,3.2193,3.2209,3.2201,3.2162,3.2161,3.2222,3.2218,3.2174,3.2285,3.2226,3.2236,3.2286,3.2303,3.2317,3.2318,3.2102,0,0,0,0,0,3.2206,3.2234,3.2216,3.2275,3.2279,3.2253,3.2266,3.2242,3.2245,3.2246,3.2237,3.2242,3.2267,3.2285,3.2306,3.2382,3.2381,3.242,3.2435,3.2446,3.2456,3.2499,3.2517,3.2325,3.2325,3.2325,0,0,3.226,3.2253,3.2274,3.2292,3.2292,3.2325,3.2255,3.2291,3.2315,3.2252,3.2303,3.2296,3.2299,3.2365,3.2394,3.2364,3.2509,3.2456,3.2466,3.2469,3.2509,3.2527,3.2543,3.233,3.2329,3.2328,0,0,3.2377,3.2373,3.2423,3.2425,3.2426,3.2409,3.2421,3.2413,3.2406,3.2456,3.241,3.2438,3.2482,3.2487,3.2495,3.2615,3.258,3.2623,3.2698,3.274,3.2756,3.2769,3.2814,3.2831,3.2632,3.2632,3.2633,0,3.2445,3.249,3.2454,3.2494,3.2505,3.2448,3.2501,3.2504,3.2513,3.2522,3.2488,3.2543,3.2541,3.2608,3.2638,3.2645,3.266,3.2624,3.2756,3.2769,3.2781,3.2824,3.2841,3.2638,3.2637,3.2637,3.2636,0,3.2575,3.2608,3.2648,3.2659,3.2673,3.2719,3.2691,3.2711,3.2685,3.2672,3.2725,3.2721,3.2742,3.2755,3.273,3.2821,3.2802,3.2763,3.2703,3.2805,3.2845,3.2861,3.2646,3.2644,3.2642,3.2641,0,0,3.2745,3.2735,3.2751,3.2756,3.2754,3.2779,3.2823,3.2844,3.2863,3.2871,3.2908,3.2947,3.2911,3.292,3.2896,3.2932,3.3031,3.2888,3.2888,3.2917,3.3134,3.3166,3.3185,3.3007,3.301,3.3012,3.3134,0,3.2861,3.2935,3.2904,3.2982,3.3014,3.2961,3.3,3.3004,3.2993,3.3018,3.3005,3.3035,3.2983,3.2989,3.3023,3.3012,3.3075,3.3002,3.3044,3.3046,3.3048,3.3205,3.3239,3.3354,3.3149,3.3152,3.3154,0,3.3005,3.302,3.3101,3.3096,3.3107,3.3143,3.316,3.3185,3.3189,3.3178,3.319,3.3157,3.3202,3.314,3.3203,3.3155,3.3169,3.3167,3.317,3.3175,3.3108,3.3217,3.339,3.3409,3.3178,3.3176,3.3174,0,3.3125,3.3165,3.3219,3.3225,3.3219,3.3245,3.3244,3.3245,3.326,3.3275,3.3285,3.3305,3.3317,3.3334,3.3309,3.3266,3.3376,3.3312,3.3371,3.3372,3.3398,3.3397,3.3579,3.3404,3.3403,3.3403,3.3403,0,3.3259,3.3312,3.3273,3.3307,3.3365,3.333,3.3388,3.3381,3.3383,3.3416,3.3371,3.3403,3.3366,3.3395,3.3375,3.3432,3.3436,3.3431,3.3425,3.3436,3.3438,3.3448,3.344,3.3407,3.3406,3.3406,3.3405,0,3.3404,3.338,3.3436,3.3426,3.3425,3.3469,3.346,3.3492,3.3478,3.352,3.3528,3.3506,3.3538,3.3513,3.3545,3.3531,3.3607,3.3589,3.3606,3.3602,3.3663,3.3659,3.386,3.3886,3.3691,3.3693,3.3694,0,3.3492,3.3531,3.3526,3.3544,3.3546,3.3576,3.3592,3.3558,3.3576,3.3584,3.3616,3.3644,3.3665,3.3719,3.3706,3.373,3.3714,3.3783,3.3718,3.3729,3.3719,3.3718,3.3724,3.3797,3.3799,3.3801,3.3803,0,3.3652,3.3639,3.3662,3.3682,3.3702,3.3716,3.3727,3.3745,3.3711,3.3734,3.3766,3.3782,3.3814,3.3844,3.3864,3.3864,3.383,3.3823,3.3839,3.3852,3.3861,3.386,3.3645,3.3819,3.3818,3.3816,3.3816,3.3815,3.3773,3.3807,3.3809,3.3837,3.3842,3.3853,3.3883,3.3873,3.3899,3.3923,3.3901,3.3941,3.3945,3.3968,3.3973,3.4004,3.3976,3.3998,3.4004,3.401,3.4021,3.3854,3.4007,3.4007,3.4006,3.4006,3.4005,0,3.3934,3.3933,3.3959,3.3976,3.3999,3.3962,3.3973,3.3995,3.403,3.4037,3.4058,3.4096,3.4125,3.4115,3.4141,3.4168,3.4153,3.4176,3.4175,3.4177,3.4043,3.4028,3.4188,3.4188,3.4188,3.4188,3.4188,3.4188,3.4021,3.4077,3.4064,3.4122,3.412,3.4159,3.4168,3.4179,3.4185,3.4229,3.4253,3.4246,3.4246,3.4272,3.4297,3.4294,3.4307,3.4337,3.4328,3.4203,3.4186,3.4169,3.4155,3.4339,3.4339,3.4459,3.4461,3.4461]},{"header":{"parameterUnit":"m.s-1","parameterCategory":1,"la1":30.2991,"la2":30.254,"lo1":-89.0895,"lo2":-89.0444,"dy":0.0017,"dx":0.0017,"nx":28,"ny":28,"refTime":"2024-08-07T03:00:00:Z","depth":0,"parameterNumber":3,"parameterNumberName":"V-component_of_WINDS"},"data":[0,0,0,0,0,0,0,0,0,0,0,0,0,0,0,0,0,0,0,0,0,0,0,0,0,0,0,0,0,0,0,0,0,0,0,0,0,0,0,0,0,0,0,0,0,0,0,0,0,0,0,0,0,0,0,0,0,0,-1.5904,-1.5905,0,-1.5982,-1.5983,-1.5984,-1.6022,-1.6022,-1.6022,-1.6022,-1.6102,-1.6104,-1.6106,0,0,0,0,0,0,0,0,0,0,0,0,0,-1.5789,-1.5791,-1.5904,-1.5905,-1.5906,-1.5982,-1.5983,-1.5984,-1.6022,-1.6022,-1.6022,-1.6022,-1.6101,-1.6104,-1.6106,0,0,0,0,0,0,0,0,0,0,0,0,0,-1.585,-1.5791,-1.5904,-1.5934,-1.5937,-1.5982,-1.5983,-1.5985,-1.6022,-1.6022,-1.6022,-1.6022,-1.61,-1.6104,-1.6107,-1.6128,0,0,-1.6117,-1.6118,0,0,0,0,0,0,0,0,-1.5847,-1.5854,-1.5929,-1.5932,-1.5936,-1.5992,-1.5972,-1.6033,-1.6022,-1.599,-1.6022,-1.6022,-1.6066,-1.6072,-1.6086,-1.6131,-1.6135,-1.6117,-1.6119,-1.612,-1.6121,0,0,0,0,0,0,0,-1.5842,-1.5851,-1.5935,-1.593,-1.5934,-1.5944,-1.5953,-1.5984,-1.6027,-1.5993,-1.5995,-1.6004,-1.6068,-1.6083,-1.6089,-1.6136,-1.6117,-1.612,-1.6122,-1.6123,-1.6204,-1.6205,0,0,0,0,0,0,-1.5833,-1.5847,-1.5933,-1.5937,-1.589,-1.5946,-1.5956,-1.5974,-1.6027,-1.6035,-1.6004,-1.6006,-1.6078,-1.6085,-1.6092,-1.6121,-1.612,-1.6123,-1.6125,-1.6204,-1.6204,-1.6205,0,0,0,0,0,0,-1.583,-1.584,-1.5929,-1.5893,-1.5905,-1.5948,-1.5969,-1.5976,-1.5991,-1.6035,-1.6043,-1.6012,-1.6078,-1.6087,-1.6119,-1.6124,-1.6125,-1.6128,-1.6204,-1.6204,-1.6205,-1.6179,0,0,0,0,0,0,-1.5827,-1.5839,-1.5847,-1.5893,-1.5907,-1.5955,-1.5969,-1.5977,-1.5997,-1.6,-1.6045,-1.6053,-1.6079,-1.6114,-1.6122,-1.6129,-1.613,-1.6204,-1.6204,-1.6204,-1.6179,-1.6178,-1.6177,0,0,0,0,0,-1.5823,-1.5836,-1.5847,-1.5857,-1.5918,-1.5955,-1.5963,-1.5993,-1.5997,-1.6006,-1.6035,-1.6051,-1.6122,-1.6117,-1.6126,-1.6134,-1.6203,-1.6204,-1.6204,-1.618,-1.6178,-1.6177,0,0,0,0,0,0,-1.5789,-1.5843,-1.5855,-1.5884,-1.5915,-1.5961,-1.5973,-1.599,-1.602,-1.6021,-1.6057,-1.6067,-1.6096,-1.6118,-1.6111,-1.6158,-1.6165,-1.6167,-1.6143,-1.6142,-1.614,-1.6135,-1.6133,0,0,0,0,0,-1.5785,-1.581,-1.5856,-1.5877,-1.5892,-1.593,-1.5947,-1.5967,-1.6001,-1.6014,-1.6045,-1.6076,-1.6106,-1.6125,-1.6155,-1.6183,-1.6194,-1.6193,-1.6192,-1.6191,-1.6193,-1.6211,-1.6212,-1.6206,-1.6206,-1.6206,0,0,-1.5777,-1.5809,-1.5823,-1.5871,-1.5897,-1.5924,-1.594,-1.5967,-1.5987,-1.6018,-1.605,-1.6074,-1.6112,-1.6143,-1.6158,-1.6162,-1.6197,-1.6191,-1.619,-1.6193,-1.6212,-1.6212,-1.6213,-1.6207,-1.6207,-1.6207,0,0,-1.5775,-1.5802,-1.5823,-1.5849,-1.5889,-1.5915,-1.592,-1.5964,-1.5981,-1.6014,-1.6039,-1.6063,-1.6113,-1.614,-1.616,-1.6171,-1.6188,-1.618,-1.6174,-1.6192,-1.6192,-1.6193,-1.6198,-1.62,-1.6182,-1.6181,-1.6181,0,-1.576,-1.58,-1.5832,-1.5858,-1.5879,-1.5909,-1.5931,-1.5955,-1.6002,-1.6017,-1.6021,-1.6086,-1.6113,-1.6151,-1.6154,-1.6169,-1.6177,-1.6175,-1.619,-1.6191,-1.6192,-1.6197,-1.6199,-1.618,-1.618,-1.6181,-1.6181,0,-1.578,-1.5808,-1.5821,-1.5866,-1.5889,-1.5913,-1.5949,-1.5968,-1.5987,-1.6012,-1.6047,-1.6081,-1.6119,-1.613,-1.6148,-1.6171,-1.6173,-1.6183,-1.619,-1.619,-1.6196,-1.6199,-1.6179,-1.6179,-1.6179,-1.618,0,0,-1.5759,-1.5823,-1.5827,-1.5849,-1.5896,-1.5918,-1.5944,-1.5982,-1.5999,-1.603,-1.6054,-1.6097,-1.6107,-1.613,-1.6152,-1.6167,-1.6176,-1.6176,-1.6177,-1.6176,-1.6205,-1.6198,-1.62,-1.6187,-1.6188,-1.6188,-1.6203,0,-1.5765,-1.5813,-1.5843,-1.5879,-1.5906,-1.5936,-1.5959,-1.599,-1.6015,-1.6042,-1.607,-1.61,-1.611,-1.6125,-1.6141,-1.6171,-1.6182,-1.617,-1.6211,-1.6212,-1.6201,-1.6203,-1.6195,-1.6207,-1.6205,-1.6205,-1.6206,0,-1.5778,-1.581,-1.5849,-1.5895,-1.5907,-1.5927,-1.5965,-1.599,-1.6028,-1.6045,-1.6071,-1.6094,-1.6124,-1.6128,-1.6171,-1.6162,-1.6181,-1.6198,-1.6199,-1.6205,-1.6209,-1.6209,-1.6211,-1.6213,-1.6209,-1.6209,-1.6209,0,-1.576,-1.5813,-1.5844,-1.5862,-1.5915,-1.5929,-1.5952,-1.5989,-1.6011,-1.6044,-1.6059,-1.6095,-1.6115,-1.6143,-1.6175,-1.6175,-1.6215,-1.6222,-1.6231,-1.623,-1.6238,-1.6237,-1.6244,-1.6248,-1.6248,-1.6248,-1.6248,0,-1.5764,-1.5787,-1.5837,-1.5856,-1.5883,-1.5918,-1.5944,-1.597,-1.6003,-1.6028,-1.6056,-1.6079,-1.6119,-1.6148,-1.6173,-1.6206,-1.6214,-1.623,-1.6236,-1.6228,-1.6226,-1.6241,-1.6241,-1.6249,-1.6249,-1.6249,-1.6248,0,-1.5749,-1.5783,-1.5819,-1.5867,-1.588,-1.5898,-1.594,-1.596,-1.5987,-1.6018,-1.6028,-1.607,-1.6105,-1.614,-1.6187,-1.6204,-1.6237,-1.6245,-1.6224,-1.6228,-1.6236,-1.6235,-1.6253,-1.6258,-1.6258,-1.6258,-1.6258,0,-1.575,-1.5768,-1.5819,-1.5838,-1.5861,-1.589,-1.5913,-1.5948,-1.5971,-1.6016,-1.6031,-1.6068,-1.61,-1.6155,-1.619,-1.6227,-1.6237,-1.6241,-1.6243,-1.6234,-1.6239,-1.6238,-1.6241,-1.624,-1.624,-1.624,-1.624,0,-1.5748,-1.5764,-1.5795,-1.5832,-1.5858,-1.5889,-1.5921,-1.5935,-1.5978,-1.6001,-1.6038,-1.6063,-1.6112,-1.6149,-1.619,-1.6215,-1.6235,-1.6239,-1.6243,-1.6235,-1.6223,-1.6231,-1.6223,-1.6238,-1.6238,-1.6238,-1.6239,-1.6239,-1.5741,-1.576,-1.5799,-1.5833,-1.5861,-1.5891,-1.5913,-1.5943,-1.5974,-1.6017,-1.6036,-1.6073,-1.6112,-1.617,-1.6195,-1.6225,-1.623,-1.6236,-1.6238,-1.6239,-1.6238,-1.6217,-1.6232,-1.6233,-1.6233,-1.6233,-1.6233,0,-1.5742,-1.5769,-1.58,-1.5844,-1.5872,-1.5888,-1.5925,-1.5947,-1.5979,-1.6014,-1.6045,-1.6088,-1.6125,-1.6164,-1.6203,-1.622,-1.6231,-1.623,-1.6229,-1.6235,-1.623,-1.6223,-1.6221,-1.6221,-1.6221,-1.6221,-1.6221,-1.6221,-1.5745,-1.5778,-1.5799,-1.5847,-1.5874,-1.5911,-1.5931,-1.5959,-1.5988,-1.6034,-1.6065,-1.6091,-1.6128,-1.617,-1.6205,-1.6216,-1.623,-1.6226,-1.624,-1.6234,-1.6235,-1.6236,-1.6229,-1.6229,-1.6229,-1.6243,-1.6243,-1.6243]}]]